Wind_Speed
5 4 5 5 5 9 7 5 6 7 7 9 8 6 10 13 14 10 12 13 15 17 19 22 24 27 26 28 31 32 31 29 31 31 28 29 29 27 25 21 20 18 15 13
4 1 1 4 6 6 5 4 5 6 7 8 5 4 5 2 1 5 3 1 4 7 10 15 19 21 25 28 31 33 30 31 33 33 32 30 28 26 25 24 24 22 18 17
5 2 4 6 7 8 5 5 7 7 10 5 1 2 3 8 13 16 16 14 11 8 5 2 2 5 10 16 22 26 29 32 35 35 31 29 27 27 26 25 23 22 21 13
3 3 2 7 1 4 9 7 5 5 3 6 10 9 10 10 14 16 14 14 12 9 6 4 4 5 8 12 15 18 23 28 29 27 24 24 22 19 20 20 18 12 16 25
5 4 5 4 5 8 8 9 7 6 6 14 20 18 11 9 11 13 12 11 10 9 7 6 6 7 9 10 11 11 15 18 18 18 18 19 20 19 14 9 16 21 28 24
3 5 8 8 5 7 4 4 8 12 9 12 12 4 4 9 10 11 9 8 7 6 6 6 8 9 9 6 4 5 5 7 10 16 19 17 18 18 20 26 26 29 15 18
2 3 7 7 4 11 5 8 18 26 26 20 5 5 16 13 10 8 7 7 6 7 6 6 6 6 6 6 5 5 5 7 9 10 13 16 20 23 23 17 14 17 22 23
3 3 7 11 6 9 8 5 28 28 28 17 11 14 17 13 9 8 7 8 8 9 10 11 11 8 12 13 12 7 2 4 6 7 9 10 8 10 13 17 20 22 25 26
9 7 5 14 5 15 10 15 26 28 24 20 19 20 18 16 13 11 11 11 11 11 13 14 13 11 10 9 4 2 3 4 5 6 8 10 12 15 17 19 22 24 26 29
4 5 6 9 15 11 15 23 27 24 24 22 21 22 21 18 16 14 13 12 11 11 13 13 9 7 8 7 5 4 3 4 6 8 11 13 15 17 20 21 23 26 28 31
3 3 1 11 16 15 18 19 23 21 22 24 23 24 21 20 18 16 14 13 10 10 11 10 8 6 6 4 3 4 7 9 11 14 16 18 19 21 23 24 25 29 31 32
7 16 13 11 21 21 21 24 23 24 23 20 21 23 22 20 18 16 15 13 12 11 9 9 6 4 2 3 6 9 11 13 15 18 21 23 27 30 29 30 31 31 31 29
7 19 15 14 23 23 22 20 21 21 21 24 21 20 21 22 19 17 15 13 11 11 8 6 3 1 3 6 9 12 15 17 20 23 24 26 28 31 37 36 32 31 28 25
15 24 12 20 14 22 22 23 21 21 21 21 23 23 22 22 22 18 16 14 11 9 6 3 1 3 5 9 12 15 17 19 21 23 25 26 27 28 29 32 37 37 33 30
22 18 15 24 25 26 23 25 25 25 25 25 23 23 22 22 21 19 17 13 9 7 5 2 2 5 8 12 15 17 19 21 23 24 24 25 26 27 27 27 28 30 33 32
13 13 21 27 30 28 27 27 28 28 27 27 27 25 22 21 21 18 14 11 8 5 2 2 5 8 11 14 17 18 20 21 23 24 25 26 26 26 26 26 27 28 29 31
21 17 24 27 30 29 28 27 25 29 28 26 25 25 24 21 18 15 13 11 7 4 2 5 8 11 14 17 19 20 21 22 23 23 24 25 25 25 25 25 26 27 27 28
6 12 19 24 32 30 27 25 25 26 26 25 25 22 18 16 14 14 12 9 5 2 4 7 10 14 16 18 19 21 21 22 22 23 23 23 23 24 24 25 26 27 29 28
8 17 18 22 25 27 27 28 27 25 26 24 20 18 15 14 12 11 9 5 2 4 6 9 13 15 17 18 19 20 21 20 20 21 22 23 22 23 24 24 26 26 27 28
17 16 17 21 22 22 26 26 26 24 20 19 17 19 17 14 11 8 6 5 4 6 9 12 15 16 17 18 19 20 20 20 21 22 22 22 23 23 23 24 25 26 27 27
15 17 20 23 24 24 23 20 18 20 19 20 18 17 14 13 9 7 5 5 7 9 11 14 16 16 16 17 18 19 20 20 21 21 22 23 23 23 23 24 24 25 26 26
17 20 22 23 22 20 17 15 14 19 21 18 15 13 11 10 7 6 5 6 7 10 13 15 17 17 17 17 17 19 20 20 21 21 22 22 23 24 24 24 25 25 26 26
21 21 20 17 17 17 17 16 16 16 16 14 12 10 8 7 6 5 6 8 10 12 15 17 17 17 17 17 17 18 19 20 20 21 22 22 23 23 24 25 25 25 26 26
17 15 16 15 14 17 19 17 16 14 12 11 9 7 5 4 5 6 8 9 12 14 16 17 17 17 17 17 18 19 20 20 21 21 21 22 23 23 23 24 25 25 25 25
14 14 13 15 16 15 14 14 13 11 9 6 4 3 4 7 9 9 11 13 14 15 17 18 17 17 17 19 19 19 20 20 20 21 21 22 22 22 23 24 24 25 25 25
13 13 13 11 10 9 8 7 6 5 5 5 5 7 8 9 11 12 14 14 15 16 17 18 17 17 18 19 20 20 20 19 19 20 20 21 21 22 23 24 24 24 24 24
13 12 10 10 9 7 6 5 4 4 6 7 8 8 10 12 13 13 14 15 16 17 18 17 17 16 18 19 20 20 19 19 19 20 20 20 21 22 23 24 24 24 24 24
Wind_Direction
239 203 184 204 178 164 185 194 165 246 202 258 263 259 279 289 286 261 245 244 244 247 248 246 245 248 253 256 254 251 247 241 241 240 240 238 238 237 234 234 232 231 231 224
178 169 163 225 236 199 213 178 236 238 255 231 299 281 298 301 67 92 91 256 271 272 272 269 267 272 276 273 266 260 253 249 247 243 238 242 240 236 230 228 224 220 217 228
228 23 46 323 222 213 209 203 179 204 222 163 108 26 49 111 107 93 86 83 80 74 68 54 323 298 290 287 276 266 258 253 249 246 245 246 241 231 226 221 211 209 220 236
172 45 244 248 235 206 214 239 226 279 217 174 149 115 100 111 108 100 93 88 87 84 77 57 359 315 301 292 283 269 256 250 249 249 249 240 229 209 196 194 204 230 260 261
146 189 294 282 206 177 179 256 194 190 138 138 131 106 69 101 111 108 105 96 83 65 45 21 357 335 312 294 282 265 251 249 251 252 237 210 198 190 202 233 244 260 278 283
135 161 214 226 230 175 105 271 181 153 167 164 166 105 197 153 130 116 103 91 79 80 64 45 29 13 355 343 309 270 233 216 187 181 180 181 200 224 244 267 271 290 286 284
110 210 287 250 215 146 130 238 174 172 172 172 164 157 150 156 139 124 117 117 118 122 112 76 59 35 36 52 71 118 155 176 189 208 239 250 260 277 281 286 287 281 287 291
93 69 279 181 126 172 215 199 180 176 177 175 161 149 155 162 153 143 135 125 122 117 93 80 73 70 91 95 97 102 121 266 278 288 288 297 307 301 298 297 295 294 294 293
177 208 223 195 214 218 222 182 181 180 181 182 166 166 169 167 161 151 142 132 118 107 103 99 100 95 103 96 80 33 38 61 34 350 329 320 313 308 305 303 302 301 299 298
109 213 221 229 220 225 199 186 182 182 179 182 180 176 170 166 158 151 139 130 122 116 111 111 111 109 97 90 77 55 24 352 326 317 314 311 309 308 305 303 302 300 300 300
279 276 271 240 215 214 196 192 181 181 188 188 182 171 171 160 153 146 141 134 133 129 125 117 115 105 95 75 30 348 337 328 322 318 316 314 311 310 307 305 304 303 302 302
214 192 181 199 200 191 185 181 186 189 176 179 183 174 165 155 151 149 147 144 140 132 128 122 120 101 57 360 339 333 330 329 328 325 321 318 315 312 310 308 307 306 304 303
188 186 188 180 184 186 184 180 178 179 178 172 168 168 162 153 151 150 148 146 143 138 137 138 136 7 339 334 335 334 332 330 328 326 325 325 324 323 320 319 321 321 323 319
183 167 138 168 176 177 179 170 167 162 161 163 159 158 158 155 153 155 150 148 148 150 158 170 217 315 332 335 333 332 331 330 330 330 330 328 327 327 326 325 325 326 327 330
171 187 200 179 167 166 167 161 155 152 153 153 158 160 161 157 155 154 152 156 163 170 174 190 299 324 331 333 333 334 335 335 335 333 332 333 333 332 332 330 328 326 324 325
154 152 156 165 162 161 164 161 159 156 160 159 159 158 159 160 158 157 162 165 174 181 191 298 325 331 334 335 335 336 336 336 336 336 336 334 334 334 333 331 329 327 327 326
140 128 151 154 162 162 167 166 168 163 161 160 160 159 158 158 163 165 165 167 179 195 268 321 330 335 336 336 335 335 338 338 335 334 334 335 334 333 332 330 328 327 328 330
204 195 178 177 168 166 166 166 167 160 160 160 158 157 161 167 169 164 164 164 175 243 308 321 329 335 334 333 334 335 335 335 335 335 335 333 333 332 330 328 327 326 326 328
168 172 167 169 172 172 167 162 166 159 155 158 159 160 166 169 167 164 165 173 234 287 307 322 331 332 330 330 331 332 332 333 334 333 333 332 331 331 330 330 329 329 330 329
147 154 160 164 166 170 161 156 154 155 153 152 166 172 165 165 166 170 178 216 257 296 316 323 326 327 327 327 330 329 330 333 333 332 332 333 332 333 334 333 333 333 333 333
148 155 159 161 155 153 157 158 154 148 158 169 169 168 170 169 175 194 225 262 295 309 319 324 325 324 324 325 326 327 330 332 331 331 332 332 332 334 335 335 335 334 334 334
157 155 149 146 144 141 143 142 154 166 163 164 169 175 181 187 198 226 260 285 301 314 320 320 320 319 321 323 326 327 329 329 329 329 330 330 331 333 334 334 334 334 334 334
140 141 141 141 140 138 141 156 164 171 172 175 181 184 191 204 222 249 276 295 305 311 315 318 318 319 321 325 326 326 325 327 328 328 329 329 331 331 332 332 333 332 333 333
127 129 131 134 138 150 155 157 166 167 174 175 180 186 203 240 279 296 300 302 308 313 315 316 316 316 318 321 325 326 325 326 326 325 326 327 328 328 329 330 331 331 331 331
125 127 134 145 153 159 166 167 171 172 177 184 198 240 290 304 307 307 301 303 306 309 314 317 314 309 310 317 323 324 323 322 320 321 323 325 326 327 329 330 330 330 331 331
136 140 145 151 154 161 177 187 197 204 229 245 266 285 294 298 299 301 300 301 305 311 313 314 311 308 309 315 320 321 319 318 318 319 321 323 325 326 328 329 329 330 330 331
107 108 112 113 118 137 160 182 215 254 279 291 295 300 299 298 297 296 299 303 307 312 314 316 315 310 309 311 314 315 315 316 316 319 321 322 324 325 327 328 329 329 329 331
Height
1468 1465 1467 1467 1466 1478 1480 1479 1489 1481 1485 1471 1465 1464 1460 1459 1458 1458 1460 1462 1464 1466 1469 1472 1476 1479 1481 1483 1485 1486 1488 1492 1494 1498 1500 1501 1504 1506 1508 1510 1511 1514 1515 1514
1468 1468 1466 1466 1466 1469 1471 1472 1476 1476 1475 1461 1461 1460 1459 1458 1459 1458 1459 1461 1464 1466 1469 1472 1475 1477 1480 1481 1482 1484 1487 1490 1492 1495 1496 1497 1500 1502 1503 1503 1504 1506 1509 1509
1475 1477 1473 1485 1471 1466 1465 1463 1463 1473 1464 1459 1462 1461 1461 1460 1460 1460 1461 1462 1465 1467 1469 1471 1472 1474 1475 1477 1479 1481 1483 1485 1487 1490 1493 1494 1496 1496 1496 1498 1500 1497 1499 1503
1488 1486 1495 1457 1452 1453 1458 1457 1456 1457 1456 1455 1457 1461 1463 1463 1462 1463 1465 1466 1468 1471 1473 1473 1473 1474 1474 1474 1476 1477 1479 1481 1483 1486 1489 1491 1493 1495 1495 1495 1494 1497 1500 1499
1481 1486 1470 1453 1454 1454 1455 1454 1450 1452 1455 1456 1459 1460 1464 1465 1465 1466 1467 1469 1470 1471 1472 1473 1474 1474 1474 1474 1474 1475 1477 1479 1482 1484 1486 1488 1489 1491 1492 1493 1492 1495 1494 1492
1487 1482 1481 1455 1440 1441 1442 1460 1444 1445 1451 1454 1458 1470 1466 1466 1466 1467 1468 1469 1470 1471 1472 1474 1474 1475 1475 1474 1475 1475 1477 1479 1481 1483 1486 1487 1486 1489 1491 1491 1491 1490 1487 1487
1493 1484 1465 1442 1438 1440 1459 1451 1435 1438 1445 1450 1454 1455 1459 1463 1465 1467 1468 1469 1471 1472 1472 1473 1474 1475 1475 1475 1476 1478 1480 1482 1484 1486 1488 1489 1490 1488 1487 1486 1486 1484 1483 1483
1482 1484 1465 1433 1440 1447 1433 1428 1429 1436 1441 1447 1450 1453 1457 1461 1464 1465 1467 1469 1471 1472 1472 1474 1475 1477 1477 1479 1481 1483 1484 1485 1485 1485 1486 1485 1485 1484 1484 1483 1481 1479 1477 1475
1446 1445 1428 1429 1428 1428 1426 1424 1429 1433 1439 1443 1447 1451 1455 1459 1462 1465 1467 1470 1472 1472 1474 1476 1478 1479 1480 1482 1483 1484 1484 1483 1484 1484 1484 1483 1482 1481 1480 1478 1476 1474 1472 1468
1433 1425 1424 1424 1425 1426 1426 1426 1428 1432 1436 1440 1444 1448 1452 1457 1461 1465 1468 1470 1472 1474 1475 1477 1479 1480 1481 1482 1483 1483 1483 1483 1483 1483 1482 1481 1479 1478 1475 1474 1471 1468 1465 1462
1427 1421 1422 1421 1421 1422 1425 1427 1430 1433 1435 1438 1442 1448 1452 1457 1462 1465 1468 1471 1473 1474 1476 1477 1480 1480 1481 1482 1483 1483 1483 1483 1482 1480 1479 1477 1475 1473 1471 1470 1467 1463 1460 1456
1416 1404 1407 1410 1416 1419 1421 1423 1427 1430 1435 1440 1444 1446 1452 1457 1462 1466 1469 1472 1474 1476 1477 1479 1480 1480 1481 1481 1482 1482 1481 1480 1479 1477 1475 1473 1469 1466 1466 1462 1459 1456 1453 1449
1395 1399 1404 1406 1411 1416 1420 1423 1426 1430 1434 1438 1444 1449 1454 1457 1463 1466 1470 1473 1475 1476 1478 1479 1480 1480 1481 1481 1480 1480 1478 1477 1475 1473 1471 1467 1463 1458 1452 1449 1448 1446 1443 1439
1393 1396 1405 1407 1410 1414 1419 1422 1426 1431 1435 1439 1444 1450 1454 1458 1462 1466 1470 1474 1476 1477 1478 1479 1480 1480 1480 1480 1479 1478 1476 1474 1472 1469 1466 1462 1459 1454 1450 1444 1437 1434 1434 1431
1392 1393 1395 1400 1407 1412 1418 1422 1426 1431 1436 1441 1446 1450 1455 1458 1463 1467 1470 1473 1476 1478 1478 1479 1479 1480 1479 1478 1476 1474 1472 1469 1467 1464 1461 1457 1453 1449 1446 1441 1437 1432 1427 1423
1394 1394 1397 1401 1406 1411 1417 1422 1425 1431 1436 1441 1446 1451 1455 1460 1464 1467 1470 1473 1476 1477 1478 1478 1478 1478 1477 1475 1473 1470 1468 1465 1462 1458 1455 1452 1448 1444 1441 1437 1433 1429 1424 1419
1395 1400 1401 1403 1407 1413 1417 1422 1426 1430 1437 1443 1448 1451 1455 1460 1464 1467 1470 1472 1475 1476 1477 1476 1476 1474 1473 1471 1469 1466 1463 1460 1457 1455 1452 1448 1444 1441 1437 1433 1429 1425 1421 1417
1396 1400 1403 1401 1405 1412 1419 1423 1430 1433 1438 1444 1449 1454 1458 1461 1464 1466 1468 1471 1473 1474 1474 1473 1472 1470 1469 1467 1465 1462 1459 1457 1454 1451 1448 1444 1441 1437 1433 1429 1425 1421 1416 1413
1400 1403 1405 1408 1412 1416 1419 1423 1431 1435 1440 1446 1451 1456 1460 1462 1464 1466 1468 1469 1470 1470 1471 1470 1468 1467 1465 1463 1461 1458 1455 1453 1450 1447 1444 1440 1437 1433 1429 1425 1421 1417 1412 1407
1404 1406 1408 1411 1416 1422 1425 1429 1433 1437 1442 1447 1453 1456 1459 1461 1463 1465 1466 1467 1467 1467 1467 1466 1464 1463 1461 1459 1457 1454 1451 1448 1446 1443 1439 1436 1432 1428 1424 1421 1417 1412 1408 1404
1405 1409 1412 1415 1418 1423 1430 1434 1437 1441 1445 1449 1452 1455 1459 1461 1462 1463 1464 1464 1464 1463 1462 1461 1460 1458 1457 1455 1452 1449 1447 1444 1441 1438 1434 1431 1427 1424 1420 1417 1413 1409 1405 1400
1411 1413 1418 1422 1425 1429 1434 1437 1441 1445 1449 1451 1454 1456 1458 1459 1460 1461 1461 1461 1460 1459 1458 1457 1456 1454 1452 1450 1448 1445 1442 1440 1437 1434 1430 1427 1423 1419 1416 1413 1409 1405 1401 1396
1417 1419 1423 1426 1429 1433 1438 1442 1446 1449 1451 1453 1455 1456 1457 1458 1459 1459 1459 1458 1457 1456 1455 1454 1452 1449 1447 1445 1443 1440 1437 1435 1432 1429 1426 1423 1419 1415 1412 1408 1405 1401 1397 1392
1422 1426 1428 1432 1435 1439 1442 1446 1449 1451 1452 1453 1455 1456 1457 1457 1457 1456 1456 1455 1453 1452 1451 1449 1447 1445 1442 1440 1438 1435 1433 1430 1427 1425 1421 1418 1415 1412 1408 1404 1401 1397 1393 1388
1428 1431 1434 1436 1439 1443 1445 1448 1450 1451 1452 1454 1455 1455 1456 1455 1455 1454 1453 1452 1451 1449 1447 1445 1443 1441 1438 1436 1434 1431 1428 1426 1423 1421 1417 1414 1411 1407 1404 1400 1397 1392 1388 1384
1433 1435 1437 1440 1443 1446 1449 1451 1452 1453 1454 1454 1454 1453 1453 1452 1451 1450 1450 1448 1446 1445 1443 1441 1438 1436 1433 1431 1429 1427 1424 1422 1419 1416 1413 1410 1406 1403 1399 1396 1392 1388 1384 1380
1439 1441 1443 1445 1448 1450 1452 1452 1453 1453 1453 1452 1451 1451 1450 1449 1448 1447 1445 1444 1442 1440 1438 1436 1433 1431 1429 1427 1425 1423 1419 1417 1414 1411 1408 1405 1402 1398 1395 1391 1388 1384 1380 1376